C/2011 U3 ( PanSTARRS )

Japanese version
Home page
Updated on February 1, 2012

---------------------------------------------------------------------

* Profile

Discovery Date October 24, 2011
Magnitude 21.8 mag
Discoverer Pan-STARRS 1 telescope (Haleakala)

* Pictures

* Orbital Elements

Epoch 2012 June 2.0 TT = JDT 2456080.5
T 2012 June 3.93222 TT                                  MPC
q   1.0713537            (2000.0)            P               Q
z  -0.0000042      Peri.  287.84227     +0.11712304     -0.73544791
 +/-0.0000131      Node   228.37984     -0.13348134     -0.67756714
e   1.0000045      Incl.  116.78020     -0.98410616     +0.00437420
From 59 observations 2011 Oct. 24-2012 Jan. 26, mean residual 0".4.

* Finding Charts

* Magnitudes Graph

        m1 = 13.5 + 5 log d + 10.0 log r

---------------------------------------------------------------------

The orbital elements are published on M.P.E.C. 2012-B78.
The charts are made with StellaNavigator Ver.8 (AstroArts).
The magnitudes graphs are made with Comet for Windows.

---------------------------------------------------------------------

Copyright(C) Seiichi Yoshida (comet@aerith.net). All rights reserved.